This is the latest recevied weather packets stored in our database for station/object KB1JL-13. If no packets are shown the sender has not sent any weather packets the latest 10 day(s).
| Time | Temp. | Humidity | Pressure | Rain* | Wind** | Luminosity | Snow |
|---|---|---|---|---|---|---|---|
| 1778076278 | 17.78° C | 82% | 1021.6 hPa | 0 mm | - | 579 W/m² | - |
| 1778075974 | 17.22° C | 83% | 1021.9 hPa | 0 mm | - | 471 W/m² | - |
| 1778075672 | 17.22° C | 84% | 1021.9 hPa | 0 mm | - | 390 W/m² | - |
| 1778075367 | 17.22° C | 84% | 1021.6 hPa | 0 mm | - | 353 W/m² | - |
| 1778075064 | 16.67° C | 84% | 1021.6 hPa | 0 mm | - | 520 W/m² | - |
| 1778074761 | 16.67° C | 85% | 1021.6 hPa | 0 mm | - | 313 W/m² | - |
| 1778074458 | 16.67° C | 85% | 1021.6 hPa | 0 mm | - | 321 W/m² | - |
| 1778074155 | 16.67° C | 85% | 1021.6 hPa | 0 mm | - | 300 W/m² | - |
| 1778073852 | 16.11° C | 87% | 1021.6 hPa | 0 mm | - | 327 W/m² | - |
| 1778073549 | 16.11° C | 87% | 1021.6 hPa | 0 mm | - | 248 W/m² | - |
| 1778073245 | 16.11° C | 87% | 1021.2 hPa | 0 mm | - | 197 W/m² | - |
| 1778072943 | 16.11° C | 86% | 1021.6 hPa | 0 mm | - | 170 W/m² | - |
| 1778072639 | 16.11° C | 87% | 1021.6 hPa | 0 mm | - | 174 W/m² | - |
| 1778072337 | 16.67° C | 87% | 1021.6 hPa | 0 mm | - | 200 W/m² | - |
| 1778072035 | 16.67° C | 87% | 1021.6 hPa | 0 mm | - | 184 W/m² | - |
| 1778071733 | 16.67° C | 87% | 1021.6 hPa | 0 mm | - | 158 W/m² | - |
| 1778071430 | 16.67° C | 87% | 1021.6 hPa | 0 mm | - | 192 W/m² | - |
| 1778071128 | 16.67° C | 86% | 1021.9 hPa | 0 mm | - | 200 W/m² | - |
| 1778070826 | 16.67° C | 88% | 1022.2 hPa | 0 mm | - | 278 W/m² | - |
| 1778070523 | 16.11° C | 88% | 1022.6 hPa | 0 mm | - | 279 W/m² | - |
| 1778070219 | 15.56° C | 89% | 1022.2 hPa | 0 mm | - | 239 W/m² | - |
| 1778069918 | 15.56° C | 89% | 1022.2 hPa | 0 mm | - | 221 W/m² | - |
| 1778069615 | 15.56° C | 90% | 1022.6 hPa | 0 mm | - | 245 W/m² | - |
| 1778069312 | 15.56° C | 90% | 1022.2 hPa | 0 mm | - | 144 W/m² | - |
| 1778069009 | 15° C | 91% | 1022.2 hPa | 0 mm | - | 161 W/m² | - |
* Rain latest hour (hover to see other rain measurements)
** Current wind speed in m/s (hover to see current wind gust speed)